Regional Weather Roundup
Issued by NWS

Home | Current Version | Previous Version | Text Only | Print | Product List | Glossary Off
Versions: 1 2 3 4 5 6 7 8 9 10 11 12 13 14 15 16 17 18 19 20 21 22 23 24 25 26 27 28 29 30 31 32 33 34 35 36 37 38 39 40 41 42 43 44 45 46 47 48 49 50

000
ASUS43 KDTX 021701
RWRMI
MICHIGAN HOURLY REGIONAL WEATHER ROUNDUP
NATIONAL WEATHER SERVICE DETROIT/PONTIAC MI
100 PM EDT THU JUL 02 2015

NOTE: "FAIR" INDICATES FEW OR NO CLOUDS BELOW 12,000 FEET WITH NO
SIGNIFICANT WEATHER AND/OR OBSTRUCTION TO VISIBILITY.

MIZ047>049-052>055-059>063-066>070-074>076-081>083-021800-
SOUTHEAST LOWER MICHIGAN

CITY           SKY/WX    TMP DP  RH WIND       PRES   REMARKS
ADRIAN         MOSUNNY   70  56  61 NE9       30.01F
ALMA           CLOUDY    68  53  59 NE7       30.04F
ANN ARBOR      MOSUNNY   72  55  55 VRB7      30.01F
BAD AXE        CLOUDY    66  52  59 N8        30.05F
CARO           MOSUNNY   71  53  53 NE6       30.03F
DETROIT CITY   MOSUNNY   72  50  45 N8        30.01F
DETROIT        PTSUNNY   71  52  50 N9        30.01F
FLINT          MOSUNNY   71  52  50 NE7       30.03F
GROSSE ILE     SUNNY     70  55  60 NE8       30.00S
HILLSDALE      PTSUNNY   68  56  67 E8        30.01S
HOWELL         PTSUNNY   68  51  53 N6        30.02F

CITY           SKY/WX    TMP DP  RH WIND       PRES   REMARKS
JACKSON        MOSUNNY   68  54  60 NE13      30.01F
LAMBERTVILLE   PTSUNNY   70  56  61 E8        30.00F
LANSING        MOSUNNY   70  55  59 NE12      30.03F
LAPEER         CLOUDY    68  50  53 N5        30.03F
MONROE         PTSUNNY   68  56  65 NE6       30.00S
MT. CLEMENS    MOSUNNY   71  54  54 NE9       29.99F
PONTIAC        PTSUNNY   67  50  54 N9        30.01F
PORT HOPE        N/A     59  54  83 NE5       30.06R
PORT HURON     SUNNY     68  52  56 NE9       30.03F
TRI CITIES     MOSUNNY   69  47  45 NE9       30.05F
MIDLAND        PTSUNNY   68  49  49 E9        30.04F
TROY           MOSUNNY   70  51  49 NE9       30.03F
SAGINAW HB     SUNNY     68  46  45 NE10      30.04S
$$
MIZ043>046-050>051-056>058-064>065-071>073-077>080-021800-
SOUTHWEST LOWER MICHIGAN

CITY           SKY/WX    TMP DP  RH WIND       PRES   REMARKS
BATTLE CREEK   PTSUNNY   68  53  58 E7        30.01F
BENTON HARBOR  MOSUNNY   71  56  58 NE12      30.00R
BIG RAPIDS     SUNNY     68  46  44 E8G20     30.03F
COLDWATER      PTSUNNY   68  53  59 E8        30.00F
FREMONT        FAIR      68  47  47 E7        30.02F
HOLLAND        PTSUNNY   71  57  61 E9        30.02F
GRAND RAPIDS   PTSUNNY   69  56  62 E9G24     30.02F
IONIA          PTSUNNY   66  56  69 NE8       30.02F
KALAMAZOO      MOSUNNY   69  55  60 VRB6      30.02F
LUDINGTON      SUNNY     71  52  51 E9        30.03F
MARSHALL       PTSUNNY   69  54  59 NE8       30.01S
MOUNT PLEASANT PTSUNNY   69  49  48 NE9       30.03F
MUSKEGON       MOSUNNY   71  53  52 NE12      30.02F
SOUTH HAVEN    MOSUNNY   69  57  67 NE8       30.01R
$$
MIZ016>042-021800-
NORTHERN LOWER MICHIGAN

CITY           SKY/WX    TMP DP  RH WIND       PRES   REMARKS
ALPENA         SUNNY     71  38  29 NE9       30.06F
BEAVER ISLAND  SUNNY     66  44  44 W6        30.08R
BELLAIRE       MOSUNNY   70  46  41 NW3       30.05F
CADILLAC       SUNNY     69  45  42 E13G18    30.04F
CHARLEVOIX     SUNNY     63  48  57 N6        30.10S
FRANKFORT      SUNNY     70  45  40 N8        30.05S
GAYLORD        SUNNY     68  44  42 NE7       30.06F
GRAYLING       SUNNY     69  44  39 E5        30.06F
HARBOR SPRINGS MOSUNNY   62  53  74 SW6       30.07F
HOUGHTON LAKE  SUNNY     69  42  37 VRB6G17   30.05F
MANISTEE       SUNNY    N/A N/A N/A NE10G20   30.04F
OSCODA         SUNNY     69  43  38 NE15      30.05F
PELLSTON       SUNNY     69  44  40 VRB3      30.06F
ROGERS CITY    SUNNY     64  51  62 N5        30.07F
TRAVERSE CITY  MOSUNNY   68  51  54 N9        30.05F
$$
MIZ007>008-015-021800-
EASTERN UPPER MICHIGAN

CITY           SKY/WX    TMP DP  RH WIND       PRES   REMARKS
KINROSS        SUNNY     70  46  43 NW7       30.05F
MACKINAC ISLAN SUNNY     65  44  46 S3        30.06S
NEWBERRY       SUNNY     69  52  54 NW5       30.04F
S. S. MARIE    SUNNY     69  48  47 VRB3      30.04F
MUNISING         N/A     67  54  63 N8        30.04F
$$
MIZ004>006-011>014-085-021800-
CENTRAL UPPER MICHIGAN

CITY           SKY/WX    TMP DP  RH WIND       PRES   REMARKS
MANISTIQUE     SUNNY     67  49  53 S9        30.06S
ESCANABA       SUNNY     66  48  52 SE13      30.05F
MENOMINEE      SUNNY     66  46  48 SE7       30.06S
SAWYER-GWINN   SUNNY     68  45  42 W8        30.05F
$$
MIZ001>003-009>011-084-021800-
WESTERN UPPER MICHIGAN

CITY           SKY/WX    TMP DP  RH WIND       PRES   REMARKS
IRON MOUNTAIN  MOSUNNY   70  45  40 VRB6      30.06S
HOUGHTON       SUNNY     73  49  42 W9        30.01F
COPPER HARBOR    N/A     63  51  65 N5        30.00F
IRONWOOD       SUNNY     72  55  56 W8        30.00F
$$

ABBREVIATIONS USED IN REMARKS
   TC - TEMPERATURE IN CELSIUS
  WCI - WIND CHILL INDEX
   HX - HEAT INDEX
  VSB - VISIBILITY




USA.gov is the U.S. government's official web portal to all federal, state and local government web resources and services.